STARLINK-38068, 69984

Orbit data source: Space-Track

STARLINK-38068, 69984 is a payload satellite owned by SpaceX/Seattle (US) in SSO that was launched on Sat, 11 Jul 2026 UTC via an FALCON 9 launch vehicle from the Air Force Western Test Range (AFWTR). Payload-class satellites include a variety of spacecraft equipped with specific instruments for various scientific and technological missions. These include communications satellites like Starlink; space stations such as the ISS; scientific satellites like the Hubble; Earth observation satellites from companies like Planet Labs, Umbra, and HawkEye 360; GPS; miniature CubeSats for education and research; and military/defense satellites.

Loading next visibility...
Identifier
69984, 2026-159K
Orbit
SSO
Country
Flag of USUS
Related business
Manufacturer
SpaceX/Seattle
Mission
Operational spacecraft
Bus & Motor
STARLINK V2MO, Unknown motor
Mass
575 kg wet, ~530 kg dry
Launch date (UTC)
2026-07-11 (1 month ago)
Launch vehicle
FALCON 9
Launch site
Air Force Western Test Range (AFWTR)
Object type
Payload
Rocket body
Debris
Shape & HBR
BOX + PAN, 17.7 m
Radar Cross Section
Large (>1 m²)

Expand to show TLE details & history
Last TLE update: 12 hours ago

TLE from 12 hours ago
0 STARLINK-38068
1 69984U 26159K   26228.54394734  .00152117  00000-0  10008-2 0  9996
2 69984  97.2847  68.9331 0001597  91.1617 268.9831 15.75233770  6960
Epoch: 2026-08-16T13:03Z
TLE epoch observation values (Epoch: 2026-08-16T13:03:17.050Z)
Latitude
-0.00002°
Longitude
-91.82689°
Altitude
347.154 km
Speed
7.701 km/s
True Right ascension
04h 35m 43s
True Declination
0° 00' 00"
Sunlit
Object was in daylight at epoch
Visualization orbit readout
Latitude
Unknown
Longitude
Unknown
Altitude
Unknown
Speed
Unknown
Apparent Right ascension
Unknown
Apparent Declination
Unknown
Sunlit
N/A
Visualization observer readout
Local Sidereal Time
16:00:31
Azimuth
Unknown
Elevation
Unknown
Doppler factor
Unknown
Orbital elements
Apogee altitude
341.926 km
Perigee altitude
339.78 km
Semi-major axis
6,718.99 km
Eccentricity
0.00016
Inclination
97.2847°
RAAN
68.9331°
Arg. of periapsis
91.1617°
True anomaly
268.9648°
Mean anomaly
268.9831°
Eccentric anomaly
268.97395°
Mean motion
3.94082 °/min
Orbital period
91.35 mins
BSTAR
0.0010008
Loading maneuver chart data...
Computing Atmospheric mass density...
Loading historical data...
Loading historical data...
Loading historical data...
Loading historical data...
Loading historical data...
Loading historical data...
Loading historical data...

Documentation

Showing up to 5 results
|